Location: *
(45.8589°N, 4.7139°E)
Time: 10:09:05
(UTC+00:00)

Cosmos-2242 - Pass Details

Date: 09 April 2020
Orbit: 590 x 618 km, 82.5° (Epoch: 05 June)

Event Time Altitude Azimuth Distance (km) Brightness Sun altitude
Exits shadow 21:45:28 35° 306° (NW) 987 4.5 -30.1°
Drops below altitude 10° 21:48:53 10° 354° (N) 1,977 6.4 -30.4°
Sets 21:51:16 0° 2° (N) 2,891 7.3 -30.7°
